When you browse on this site, cookies collect data to enhance your experience and personalize the content and advertising you see.
Visit our Privacy Policy to learn more. By continuing to use the site, you agree to this use of cookies and data.
  • In Österreich
  • Länderverzeichnis
  • Für 7 Tage
  • Wassertemperatur
  • Wetterkarte
  • News
  • Widgets
  • user-avatar
    Anmelden

    Stündliche Wetter Los Reyes

    Heute, 18 August, Sonntag

    Zeit Temperatur Niederschläge Wind Luftdruck Luftfeuchtigkeit
    00:00 +14°C° 0 mm 1 m/S 584 mmHg 90%
    01:00 +14°C° 0 mm 1 m/S 584 mmHg 89%
    02:00 +13°C° 0 mm 1 m/S 584 mmHg 88%
    03:00 +13°C° 0 mm 1 m/S 584 mmHg 87%
    04:00 +13°C° 0 mm 1 m/S 584 mmHg 87%
    05:00 +13°C° 0 mm 1 m/S 584 mmHg 86%
    06:00 +15°C° 0 mm 1 m/S 585 mmHg 79%
    07:00 +18°C° 0 mm 1 m/S 586 mmHg 71%
    08:00 +20°C° 0 mm 1 m/S 588 mmHg 64%
    09:00 +22°C° 0 mm 1 m/S 588 mmHg 61%
    10:00 +23°C° 0 mm 2 m/S 588 mmHg 58%
    11:00 +24°C° 0 mm 3 m/S 588 mmHg 55%
    12:00 +24°C° 0 mm 3 m/S 588 mmHg 57%
    13:00 +22°C° 0 mm 3 m/S 587 mmHg 60%
    14:00 +22°C° 0 mm 4 m/S 586 mmHg 62%
    15:00 +21°C° 0.2 mm 3 m/S 586 mmHg 72%
    16:00 +19°C° 0.2 mm 3 m/S 585 mmHg 81%
    17:00 +17°C° 0.2 mm 2 m/S 584 mmHg 91%
    18:00 +18°C° 0.1 mm 1 m/S 584 mmHg 93%
    19:00 +16°C° 0.1 mm 1 m/S 585 mmHg 95%
    20:00 +14°C° 0.1 mm 0 m/S 585 mmHg 97%
    21:00 +15°C° 0.1 mm 1 m/S 585 mmHg 97%
    22:00 +14°C° 0.1 mm 1 m/S 585 mmHg 97%
    23:00 +14°C° 0.1 mm 1 m/S 585 mmHg 96%

    Morgen, 19 August, Montag

    Zeit Temperatur Niederschläge Wind Luftdruck Luftfeuchtigkeit
    00:00 +14°C° 0 mm 1 m/S 585 mmHg 96%
    01:00 +14°C° 0 mm 1 m/S 584 mmHg 96%
    02:00 +14°C° 0 mm 1 m/S 584 mmHg 95%
    03:00 +13°C° 0 mm 1 m/S 584 mmHg 95%
    04:00 +13°C° 0 mm 1 m/S 584 mmHg 96%
    05:00 +13°C° 0 mm 1 m/S 584 mmHg 96%
    06:00 +14°C° 0 mm 1 m/S 585 mmHg 90%
    07:00 +16°C° 0 mm 1 m/S 586 mmHg 84%
    08:00 +18°C° 0 mm 1 m/S 587 mmHg 78%
    09:00 +18°C° 0.2 mm 2 m/S 587 mmHg 74%
    10:00 +19°C° 0.2 mm 3 m/S 587 mmHg 71%
    11:00 +20°C° 0.2 mm 4 m/S 588 mmHg 67%
    12:00 +20°C° 0.6 mm 4 m/S 587 mmHg 70%
    13:00 +19°C° 0.6 mm 4 m/S 586 mmHg 72%
    14:00 +19°C° 0.6 mm 4 m/S 585 mmHg 75%
    15:00 +18°C° 0.5 mm 3 m/S 585 mmHg 80%
    16:00 +17°C° 0.5 mm 3 m/S 585 mmHg 85%
    17:00 +16°C° 0.5 mm 2 m/S 585 mmHg 90%
    18:00 +15°C° 0.2 mm 2 m/S 585 mmHg 92%
    19:00 +14°C° 0.2 mm 2 m/S 585 mmHg 94%
    20:00 +13°C° 0.2 mm 1 m/S 585 mmHg 96%
    21:00 +13°C° 0 mm 1 m/S 585 mmHg 96%
    22:00 +12°C° 0 mm 1 m/S 585 mmHg 96%
    23:00 +12°C° 0 mm 1 m/S 585 mmHg 97%

    übermorgen, 20 August, Dienstag

    Zeit Temperatur Niederschläge Wind Luftdruck Luftfeuchtigkeit
    00:00 +11°C° 0 mm 1 m/S 584 mmHg 96%
    01:00 +11°C° 0 mm 1 m/S 584 mmHg 95%
    02:00 +10°C° 0 mm 1 m/S 584 mmHg 95%
    03:00 +10°C° 0 mm 1 m/S 584 mmHg 94%
    04:00 +10°C° 0 mm 1 m/S 584 mmHg 93%
    05:00 +10°C° 0 mm 1 m/S 584 mmHg 93%
    06:00 +12°C° 0 mm 1 m/S 585 mmHg 86%
    07:00 +14°C° 0 mm 1 m/S 586 mmHg 80%
    08:00 +16°C° 0 mm 1 m/S 587 mmHg 74%
    09:00 +17°C° 0 mm 2 m/S 587 mmHg 71%
    10:00 +18°C° 0 mm 3 m/S 588 mmHg 67%
    11:00 +19°C° 0 mm 4 m/S 588 mmHg 63%
    12:00 +19°C° 0.4 mm 4 m/S 587 mmHg 69%
    13:00 +18°C° 0.4 mm 4 m/S 587 mmHg 74%
    14:00 +18°C° 0.4 mm 4 m/S 586 mmHg 79%
    15:00 +17°C° 0.5 mm 3 m/S 586 mmHg 83%
    16:00 +16°C° 0.5 mm 2 m/S 585 mmHg 87%
    17:00 +15°C° 0.5 mm 2 m/S 585 mmHg 91%
    18:00 +14°C° 0.6 mm 2 m/S 585 mmHg 93%
    19:00 +14°C° 0.6 mm 2 m/S 586 mmHg 95%
    20:00 +13°C° 0.6 mm 1 m/S 586 mmHg 97%
    21:00 +13°C° 0.2 mm 1 m/S 586 mmHg 97%
    22:00 +13°C° 0.2 mm 1 m/S 586 mmHg 97%
    23:00 +13°C° 0.2 mm 1 m/S 586 mmHg 96%

    21 August, Mittwoch

    Zeit Temperatur Niederschläge Wind Luftdruck Luftfeuchtigkeit
    00:00 +13°C° 0.1 mm 1 m/S 586 mmHg 96%
    01:00 +12°C° 0.1 mm 1 m/S 585 mmHg 96%
    02:00 +12°C° 0.1 mm 1 m/S 585 mmHg 96%
    03:00 +12°C° 0 mm 1 m/S 585 mmHg 95%
    04:00 +11°C° 0 mm 1 m/S 585 mmHg 95%
    05:00 +11°C° 0 mm 1 m/S 585 mmHg 95%
    06:00 +13°C° 0 mm 1 m/S 585 mmHg 90%
    07:00 +14°C° 0 mm 1 m/S 586 mmHg 86%
    08:00 +16°C° 0 mm 1 m/S 587 mmHg 81%
    09:00 +17°C° 0.1 mm 2 m/S 588 mmHg 75%
    10:00 +18°C° 0.1 mm 3 m/S 588 mmHg 68%
    11:00 +20°C° 0.1 mm 3 m/S 588 mmHg 62%
    12:00 +19°C° 0.6 mm 3 m/S 587 mmHg 69%
    13:00 +18°C° 0.6 mm 3 m/S 586 mmHg 75%
    14:00 +17°C° 0.6 mm 3 m/S 585 mmHg 82%
    15:00 +17°C° 0.4 mm 3 m/S 585 mmHg 84%
    16:00 +16°C° 0.4 mm 2 m/S 585 mmHg 87%
    17:00 +15°C° 0.4 mm 1 m/S 585 mmHg 89%
    18:00 +14°C° 0.3 mm 1 m/S 585 mmHg 91%
    19:00 +14°C° 0.3 mm 1 m/S 585 mmHg 94%
    20:00 +13°C° 0.3 mm 1 m/S 585 mmHg 96%
    21:00 +13°C° 0 mm 1 m/S 585 mmHg 95%
    22:00 +13°C° 0 mm 1 m/S 585 mmHg 94%
    23:00 +13°C° 0 mm 1 m/S 585 mmHg 93%

    22 August, Donnerstag

    Zeit Temperatur Niederschläge Wind Luftdruck Luftfeuchtigkeit
    00:00 +12°C° 0 mm 1 m/S 585 mmHg 92%
    01:00 +12°C° 0 mm 1 m/S 584 mmHg 92%
    02:00 +12°C° 0 mm 1 m/S 584 mmHg 92%
    03:00 +12°C° 0 mm 1 m/S 584 mmHg 91%
    04:00 +12°C° 0 mm 1 m/S 584 mmHg 90%
    05:00 +12°C° 0 mm 1 m/S 584 mmHg 89%
    06:00 +14°C° 0 mm 1 m/S 586 mmHg 82%
    07:00 +16°C° 0 mm 1 m/S 587 mmHg 74%
    08:00 +18°C° 0 mm 0 m/S 588 mmHg 66%
    09:00 +20°C° 0.3 mm 1 m/S 588 mmHg 67%
    10:00 +21°C° 0.3 mm 1 m/S 588 mmHg 68%
    11:00 +20°C° 0.3 mm 2 m/S 588 mmHg 69%
    12:00 +19°C° 1.4 mm 2 m/S 587 mmHg 74%
    13:00 +19°C° 1.4 mm 2 m/S 586 mmHg 79%
    14:00 +18°C° 1.4 mm 2 m/S 585 mmHg 85%
    15:00 +17°C° 0.9 mm 2 m/S 585 mmHg 88%
    16:00 +18°C° 0.9 mm 1 m/S 585 mmHg 91%
    17:00 +16°C° 0.9 mm 1 m/S 585 mmHg 93%
    18:00 +16°C° 1.1 mm 1 m/S 585 mmHg 94%
    19:00 +15°C° 1.1 mm 1 m/S 585 mmHg 95%
    20:00 +14°C° 1.1 mm 0 m/S 586 mmHg 96%
    21:00 +15°C° 2.6 mm 1 m/S 586 mmHg 95%
    22:00 +15°C° 2.6 mm 1 m/S 586 mmHg 95%
    23:00 +15°C° 2.6 mm 1 m/S 586 mmHg 95%

    23 August, Freitag

    Zeit Temperatur Niederschläge Wind Luftdruck Luftfeuchtigkeit
    00:00 +14°C° 0.7 mm 1 m/S 586 mmHg 94%
    01:00 +14°C° 0.7 mm 1 m/S 585 mmHg 93%
    02:00 +14°C° 0.7 mm 1 m/S 585 mmHg 92%
    03:00 +14°C° 0.2 mm 1 m/S 585 mmHg 92%
    04:00 +14°C° 0.2 mm 1 m/S 585 mmHg 91%
    05:00 +14°C° 0.2 mm 1 m/S 585 mmHg 90%
    06:00 +15°C° 0.1 mm 1 m/S 586 mmHg 86%
    07:00 +18°C° 0.1 mm 1 m/S 587 mmHg 81%
    08:00 +19°C° 0.1 mm 1 m/S 588 mmHg 77%
    09:00 +20°C° 0.4 mm 1 m/S 588 mmHg 74%
    10:00 +21°C° 0.4 mm 1 m/S 588 mmHg 71%
    11:00 +22°C° 0.4 mm 1 m/S 588 mmHg 68%
    12:00 +21°C° 1 mm 1 m/S 587 mmHg 74%
    13:00 +20°C° 1 mm 1 m/S 586 mmHg 79%
    14:00 +19°C° 1 mm 1 m/S 585 mmHg 85%
    15:00 +19°C° 0.8 mm 1 m/S 585 mmHg 87%
    16:00 +18°C° 0.8 mm 1 m/S 585 mmHg 90%
    17:00 +15°C° 0.8 mm 0 m/S 585 mmHg 92%
    18:00 +16°C° 0.1 mm 1 m/S 585 mmHg 91%
    19:00 +15°C° 0.1 mm 1 m/S 585 mmHg 89%
    20:00 +15°C° 0.1 mm 2 m/S 586 mmHg 88%
    21:00 +15°C° 0 mm 2 m/S 586 mmHg 87%
    22:00 +15°C° 0 mm 2 m/S 586 mmHg 86%
    23:00 +14°C° 0 mm 2 m/S 586 mmHg 85%
    Mehr zeigen